Home > Weather > Geneva > Past weeks

Flag for Switzerland Weather for the Past 2 Weeks in Geneva, Geneva, Switzerland

Now
46 °F

Light rain. Overcast.


Feels Like: 43 °F
Forecast: 34 / 40 °F
Wind: 7 mph from West

Location: Geneva Cointrin Airport

Current Time: Feb 9, 2016 at 5:09:16 AM

Latest Report: Feb 9, 2016 at 4:20 AM


Visibility: N/A

Pressure: 29.89 "Hg

Humidity: 82%

Dew point: 41 °F

Location of GenevaLocation

Historic Weather in Geneva — Graph

°F

Geneva Temperature Yesterday

Maximum temperature yesterday: 54 °F (at 3:50 PM)
Minimum temperature yesterday: 34 °F (at 12:50 AM)
Average temperature yesterday: 45 °F

High & Low Weather Summary for the Past Weeks

 TemperatureHumidityPressure
High59 °F (Feb 1, 2:20 PM)100% (Jan 27, 5:50 AM)30.54 "Hg (Jan 27, 5:50 AM)
Low28 °F (Jan 25, 4:20 AM)44% (Feb 6, 11:50 PM)29.62 "Hg (Feb 7, 6:20 AM)
Average44 °F80%30.26 "Hg
* Reported Jan 25 3:20 AM — Feb 9 3:20 AM, Geneva, Weather by CustomWeather, © 2016

Note: Actual official high and low records may vary slightly from our data, if they occured in-between our weather recording intervals... More about our weather records

Advertising

Geneva Weather History for the Previous 24 Hours

 ConditionsComfort  
Time TempWeatherWind HumidityBarometerVisibility
3:20 AM
Tue, Feb 9
50 °FLight rain. Overcast.15 mph67%29.92 "HgN/A
2:50 AM50 °FPassing clouds.9 mph67%29.92 "HgN/A
1:50 AM50 °FPassing clouds.16 mph62%29.95 "HgN/A
1:20 AM52 °FPassing clouds.18 mph58%29.95 "HgN/A
12:50 AM52 °FPartly cloudy.17 mph54%29.95 "HgN/A
12:20 AM52 °FPassing clouds.20 mph62%29.98 "HgN/A
11:20 PM
Mon, Feb 8
50 °FRain showers. Passing clouds.9 mph71%29.95 "HgN/A
10:50 PM50 °FLight rain. Passing clouds.10 mph71%29.95 "Hg5 mi
10:20 PM48 °FSprinkles. Passing clouds.5 mph76%29.95 "HgN/A
9:50 PM50 °FPassing clouds.10 mph71%29.98 "HgN/A
9:20 PM48 °FPassing clouds.17 mph76%29.98 "HgN/A
8:50 PM50 °FSprinkles. Mostly cloudy.20 mph76%29.98 "HgN/A
8:20 PM50 °FScattered showers. Passing clouds.17 mph71%29.95 "HgN/A
7:50 PM48 °FScattered showers. Passing clouds.9 mph82%29.95 "HgN/A
7:20 PM48 °FSprinkles. Passing clouds.16 mph82%29.95 "HgN/A
6:50 PM50 °FSprinkles. Passing clouds.16 mph76%29.95 "HgN/A
6:20 PM50 °FSprinkles. Passing clouds.18 mph71%29.92 "HgN/A
5:50 PM52 °FScattered showers. Passing clouds.20 mph62%29.92 "HgN/A
5:20 PM52 °FSprinkles. Partly sunny.24 mph62%29.89 "HgN/A
4:50 PM52 °FSprinkles. Partly sunny.20 mph62%29.89 "HgN/A
4:20 PM52 °FSprinkles. Partly sunny.23 mph62%29.89 "HgN/A
3:50 PM54 °FScattered showers. Partly sunny.21 mph54%29.86 "HgN/A
3:20 PM52 °FSprinkles. Partly sunny.24 mph58%29.86 "HgN/A
2:50 PM50 °FPartly sunny.16 mph67%29.86 "HgN/A
2:20 PM50 °FSprinkles. Partly sunny.17 mph67%29.89 "HgN/A
1:50 PM52 °FScattered showers. Partly sunny.16 mph58%29.89 "HgN/A
1:20 PM52 °FPartly sunny.18 mph54%29.89 "HgN/A
12:50 PM48 °FPartly sunny.12 mph66%29.89 "HgN/A
12:20 PM48 °FBroken clouds.15 mph62%29.92 "HgN/A
11:50 AM46 °FPartly sunny.14 mph66%29.92 "HgN/A
11:20 AM45 °FPartly sunny.12 mph71%29.92 "HgN/A
10:50 AM45 °FMostly cloudy.13 mph66%29.92 "HgN/A
10:20 AM45 °FMostly cloudy.16 mph66%29.95 "HgN/A
9:50 AM43 °FMostly cloudy.16 mph71%29.95 "HgN/A
9:20 AM41 °FBroken clouds.12 mph76%29.95 "HgN/A
8:50 AM41 °FBroken clouds.12 mph70%29.95 "HgN/A
8:20 AM39 °FBroken clouds.12 mph75%29.95 "HgN/A
7:50 AM39 °FPartly sunny.10 mph75%29.95 "HgN/A
7:20 AM39 °FPassing clouds.14 mph75%29.95 "HgN/A
6:50 AM39 °FPassing clouds.12 mph81%29.95 "HgN/A
6:20 AM39 °FPassing clouds.13 mph81%29.95 "HgN/A
5:50 AM39 °FPassing clouds.12 mph81%29.95 "HgN/A
5:20 AM37 °FPassing clouds.9 mph87%29.98 "HgN/A
Weather by CustomWeather, © 2016

See weather overviewHow to use our weather pages